Change the Weather History Date:

Tuesday, February 12, 2013

  Actual Average (KHGR) Record (KHGR)
Temperature  
Mean Temperature 40 °F 33 °F  
Max Temperature 48 °F 41 °F 69 °F (1999)
Min Temperature 30 °F 25 °F 6 °F (2014)
Degree Days  
Heating Degree Days 24 32  
Month to date heating degree days 392  
Since 1 July heating degree days 3416  
Cooling Degree Days 0 0  
Month to date cooling degree days 0  
Year to date cooling degree days 0  
Moisture  
Dew Point 25 °F    
Average Humidity 51    
Maximum Humidity 76    
Minimum Humidity 41    
Precipitation  
Precipitation 0.00 in 0.10 in 0.15 in (2008)
Month to date precipitation 1.10  
Year to date precipitation 3.78  
Sea Level Pressure  
Sea Level Pressure 29.92 in    
Wind  
Wind Speed 6 mph (West)    
Max Wind Speed 14 mph    
Max Gust Speed 25 mph    
Visibility 10 miles    
Events      
T = Trace of Precipitation, MM = Missing Value Source: NWS Daily Summary

Daily Weather History Graph

Daily Weather History Graph

Search for Another Location

Airport or City:

Trip Planner

Search our weather history database for the weather conditions in past years. The results will help you decide how hot, cold, wet, or windy it might be!

Date:

Astronomy

Feb. 12, 2013 Rise Set
Actual Time 7:05 AM EST 5:42 PM EST
Civil Twilight 6:37 AM EST 6:10 PM EST
Nautical Twilight 6:06 AM EST 6:42 PM EST
Astronomical Twilight 5:34 AM EST 7:13 PM EST
Moon 8:02 AM EST (2/12) 8:40 PM EST (2/12)
Length of Visible Light 11h 32m
Length of Day
10h 37m
Waxing Crescent, 7% of the Moon is Illuminated
Feb 12
Waxing Crescent
Feb 17
First Quarter
Feb 25
Full
Mar 4
Last Quarter
Mar 11
New

Hourly Weather History & Observations

Time (EST) Temp. Windchill Dew Point Humidity Pressure Visibility Wind Dir Wind Speed Gust Speed Precip Events Conditions
12:53 AM 45.0 °F 42.6 °F 28.0 °F 52% 29.83 in 10.0 mi Variable 4.6 mph - N/A   Overcast
1:53 AM 45.0 °F 41.8 °F 26.1 °F 48% 29.84 in 10.0 mi Variable 5.8 mph 16.1 mph N/A   Overcast
3:53 AM 43.0 °F 37.2 °F 24.1 °F 47% 29.84 in 10.0 mi West 10.4 mph 23.0 mph N/A   Overcast
4:53 AM 43.0 °F 37.2 °F 23.0 °F 45% 29.85 in 10.0 mi West 10.4 mph 21.9 mph N/A   Mostly Cloudy
5:53 AM 43.0 °F 37.2 °F 24.1 °F 47% 29.85 in 10.0 mi West 10.4 mph 21.9 mph N/A   Mostly Cloudy
6:53 AM 42.1 °F 39.2 °F 24.1 °F 49% 29.88 in 10.0 mi Variable 4.6 mph 19.6 mph N/A   Overcast
7:53 AM 42.1 °F 36.6 °F 24.1 °F 49% 29.91 in 10.0 mi WNW 9.2 mph 21.9 mph N/A   Mostly Cloudy
8:53 AM 43.0 °F 36.0 °F 24.1 °F 47% 29.92 in 10.0 mi WNW 13.8 mph 25.3 mph N/A   Clear
9:53 AM 43.0 °F 38.8 °F 25.0 °F 49% 29.96 in 10.0 mi West 6.9 mph - N/A   Mostly Cloudy
10:53 AM 43.0 °F 38.2 °F 24.1 °F 47% 29.98 in 10.0 mi West 8.1 mph 16.1 mph N/A   Scattered Clouds
11:53 AM 45.0 °F 39.7 °F 25.0 °F 46% 29.99 in 10.0 mi West 10.4 mph 16.1 mph N/A   Mostly Cloudy
1:53 PM 46.9 °F - 25.0 °F 42% 29.93 in 10.0 mi West 11.5 mph 17.3 mph N/A   Clear
2:01 PM 46.4 °F 43.5 °F 26.6 °F 46% 29.91 in 2.0 mi Variable 5.8 mph 18.4 mph N/A   Haze
2:53 PM 48.9 °F - 26.1 °F 41% 29.87 in 10.0 mi Variable 4.6 mph - N/A   Clear
3:53 PM 48.9 °F - 27.0 °F 43% 29.93 in 10.0 mi WSW 11.5 mph 16.1 mph N/A   Clear
4:53 PM 48.0 °F - 26.1 °F 42% 29.93 in 10.0 mi Calm Calm - N/A   Clear
5:53 PM 43.0 °F - 26.1 °F 51% 29.96 in 10.0 mi Calm Calm - N/A   Clear
6:53 PM 39.9 °F - 26.1 °F 58% 29.98 in 10.0 mi Calm Calm - N/A   Clear
7:53 PM 36.0 °F - 25.0 °F 64% 29.96 in 10.0 mi Calm Calm - N/A   Clear
8:53 PM 36.0 °F - 25.0 °F 64% 29.94 in 10.0 mi Calm Calm - N/A   Clear
9:53 PM 33.1 °F - 25.0 °F 72% 29.96 in 10.0 mi Calm Calm - N/A   Clear
11:53 PM 30.9 °F - 24.1 °F 76% 29.96 in 9.0 mi Calm Calm - N/A   Clear